Weather in Lisitsino

Russia / Kostroma Oblast     58°38′38″N   44°32′39″E
temp.,
°C
wind,
m/s
gust,
m/s
humid.,
%
clouds,
%
prec.,
mm/h
press.,
hPa
HPBL,
m
10 august, wed
wed1000:00+14ene3798100 9.6 1021343
03:00+13n259927 10.2 1021151
06:00+14n239725 0.0 1021144
09:00+17nne228081 0.0 1022538
12:00+20n226099 0.3 10211259
15:00+21n24546 1.3 10211409
18:00+17nnw37746 0.4 1021298
21:00+12n23950 0.9 102254
11 august, thu
thu1100:00+11n11970 0.0 102316
03:00+10nw24987 0.0 102468
06:00+12nw24950 0.0 1025125
09:00+17nw23700 0.0 1025611
12:00+21nw23480 0.0 10241635
15:00+22wnw34400 0.0 10231952
18:00+20w24586 0.0 1022144
21:00+14w24736 0.0 102360
12 august, fri
fri1200:00+13wsw2676100 0.0 1023108
03:00+13wsw2976100 0.0 1022186
06:00+14wsw3117299 0.0 1022286
09:00+20w49545 0.0 1021701
12:00+24w58436 0.0 10201528
15:00+25w58425 0.0 10191906
18:00+23w48555 0.0 1019796
21:00+17w38801 0.0 1019161
13 august, sat
sat1300:00+15wnw27895 0.0 1020127
03:00+14nw26960 0.0 1021139
06:00+15nw26875 0.0 1022159
09:00+20nnw34525 0.0 1023713
12:00+22nw45445 0.0 10231527
15:00+23nnw35395 0.0 10221547
18:00+20n24585 0.0 1023127
21:00+14ene22705 0.0 102315
14 august, sun
sun1400:00+13ese22705 0.0 102420
03:00+12se22745 0.0 102419
06:00+14se137299 0.0 102496
09:00+16se2371100 0.0 1024157
12:00+23sse235027 0.0 1023882
15:00+26ssw244498 0.0 10212233
18:00+20sw117299 0.0 102112
21:00+19sse2476100 0.0 102170